Orbital Elements at Epoch 2459200.5 (2020-Dec-17.0) TDB
Reference: JPL 27 (heliocentric ecliptic J2000)
Element | Value | Uncertainty (1-sigma) | Units |
e | .1191812026896577 | 4.216e-08 | |
a | 2.531359504053978 | 7.6873e-09 | au |
q | 2.22966903392093 | 1.0619e-07 | au |
i | 1.611417159232234 | 3.609e-06 | deg |
node | 212.0587365496528 | 0.00012975 | deg |
peri | 156.3541778246359 | 0.00013058 | deg |
M | 95.9449070219743 | 1.4548e-05 | deg |
tp | 2458808.443557720622 (2019-Nov-20.94355772) | 5.8994e-05 | TDB |
period | 1471.055875725124 4.03 | 6.701e-06 1.835e-08 | d yr |
n | .2447221794498771 | 1.1148e-09 | deg/d |
Q | 2.833049974187027 | 8.6034e-09 | au |
|
| | Orbit Determination Parameters
Additional Information
|